1506448800.37,49783,15.81,74690.5,0.21,-9.93,-9.31,0,*47
1506448801.58,49784,15.81,74690.5,0.21,-8.85,-8.93,0,*4F
1506448802.8,49785,15.81,74692.3,0.19,-8.25,-7.43,0,*4D
1506448804.01,49786,15.81,74692.5,0.19,-8.37,-7.01,0,*4B
1506448805.23,49787,15.81,74690.8,0.19,-8.11,-7.23,0,*4E
1506448806.46,49788,15.81,74690.5,0.19,-7.57,-7.01,0,*4C
1506448807.68,49789,15.81,74688.0,0.19,-7.57,-6.55,0,*4D
1506448808.89,49790,15.81,74684.0,0.19,-8.55,-7.05,0,*4C
1506448810.13,49791,15.81,74692.3,0.21,-9.19,-7.43,0,*4D
1506448811.36,49792,15.81,74692.0,0.19,-9.45,-7.73,0,*4F
1506448812.6,49793,15.81,74692.3,0.21,-9.31,-8.11,0,*4D
1506448813.78,49794,15.81,74692.5,0.19,-9.19,-7.49,0,*49
1506448815.0,49795,15.81,74690.5,0.21,-11.01,-8.75,0,*73
1506448816.24,49796,15.81,74690.3,0.21,-11.55,-10.05,0,*4F
1506448817.47,49797,15.81,74690.8,0.21,-11.41,-10.57,0,*4C
1506448818.69,49798,15.81,74690.8,0.21,-11.23,-10.05,0,*40
1506448819.94,49799,15.81,74694.0,0.21,-11.55,-10.19,0,*4D
1506448821.16,49800,15.81,74692.0,0.21,-12.25,-11.11,0,*4F
1506448822.38,49801,15.81,74696.3,0.21,-12.39,-11.23,0,*42
1506448823.65,49802,15.81,74692.5,0.21,-12.57,-11.55,0,*48
1506448824.85,49803,15.81,74688.8,0.23,-12.89,-12.03,0,*48
1506448826.1,49804,15.81,74688.3,0.23,-12.65,-11.63,0,*48
1506448827.35,49805,15.81,74692.0,0.23,-12.75,-11.55,0,*4D
1506448828.59,49806,15.81,74692.5,0.21,-12.93,-11.85,0,*49
1506448829.84,49807,15.81,74692.5,0.21,-13.11,-12.11,0,*4D
1506448831.03,49808,15.81,74692.5,0.23,-13.15,-12.21,0,*47
1506448832.28,49809,15.81,74694.0,0.19,-13.29,-12.35,0,*45
1506448833.51,49810,15.81,74690.8,0.19,-13.23,-12.35,0,*47
1506448834.76,49811,15.81,74698.5,0.21,-13.29,-12.43,0,*46
1506448836.0,49812,15.81,74692.0,0.21,-13.37,-12.43,0,*4A
1506448837.22,49813,15.81,74690.0,0.21,-13.43,-12.43,0,*48
1506448838.47,49814,15.81,74694.8,0.21,-13.55,-12.57,0,*4D
1506448839.71,49815,15.81,74688.5,0.21,-13.55,-12.65,0,*4D
1506448840.98,49816,15.81,74694.5,0.21,-13.79,-12.83,0,*48
1506448842.25,49817,15.81,74694.0,0.21,-13.79,-12.79,0,*4C
1506448843.5,49818,15.81,74692.0,0.21,-13.65,-12.71,0,*46
1506448844.73,49819,15.81,74690.8,0.19,-13.69,-12.71,0,*40
1506448845.98,49820,15.81,74688.8,0.19,-13.83,-12.83,0,*43
1506448847.21,49821,15.81,74692.0,0.19,-13.83,-12.93,0,*43
1506448848.4,49822,15.81,74686.3,0.19,-13.93,-12.97,0,*45
1506448849.67,49823,15.81,74694.8,0.17,-13.97,-13.01,0,*40
1506448850.92,49824,15.81,74690.3,0.17,-13.97,-13.11,0,*46
1506448852.15,49825,15.81,74690.3,0.19,-13.97,-13.11,0,*49
1506448853.35,49826,15.81,74688.5,0.19,-14.19,-13.23,0,*4A
1506448854.55,49827,15.81,74690.8,0.19,-14.19,-13.23,0,*4B
1506448855.76,49828,15.81,74688.0,0.17,-14.33,-13.47,0,*40
1506448856.97,49829,15.81,74692.8,0.17,-14.33,-13.43,0,*45
1506448858.22,49830,15.81,74688.5,0.17,-14.43,-13.55,0,*4D
1506448859.49,49831,15.81,74692.0,0.17,-14.47,-13.61,0,*4F
1506448860.72,49832,15.81,74690.5,0.15,-14.47,-13.55,0,*49
1506448861.94,49833,15.81,74694.0,0.15,-14.55,-13.47,0,*48
1506448863.15,49834,15.81,74694.8,0.17,-14.33,-13.55,0,*4E
1506448864.4,49835,15.81,74688.5,0.15,-13.61,-13.29,0,*46
1506448865.64,49836,15.81,74688.0,0.15,-12.83,-12.61,0,*45
1506448866.87,49837,15.81,74690.3,0.15,-12.25,-12.15,0,*4B
1506448868.06,49838,15.81,74684.8,0.15,-10.89,-11.19,0,*4F
1506448869.27,49839,15.81,74686.5,0.15,-9.37,-9.67,0,*43
1506448870.47,49840,15.81,74688.0,0.15,-8.85,-8.89,0,*44
1506448871.7,49841,15.81,74688.0,0.15,-7.91,-7.91,0,*49
1506448872.93,49842,15.81,74684.3,0.17,-8.03,-6.81,0,*4C
1506448874.15,49843,15.81,74684.5,0.15,-8.71,-7.35,0,*44
1506448875.36,49844,15.81,74684.0,0.17,-8.71,-7.49,0,*4A
1506448876.56,49845,15.81,74682.8,0.17,-9.93,-7.53,0,*4D
1506448877.75,49846,15.81,74682.3,0.15,-10.93,-8.59,0,*71
1506448878.95,49847,15.81,74686.5,0.17,-10.89,-9.23,0,*75
1506448880.17,49848,15.81,74680.0,0.15,-11.15,-9.11,0,*7D
1506448881.41,49849,15.81,74684.8,0.15,-11.33,-9.83,0,*73
1506448882.63,49850,15.81,74684.8,0.17,-12.39,-10.45,0,*42
1506448883.87,49851,15.81,74688.3,0.17,-12.11,-10.49,0,*45
1506448885.09,49852,15.81,74690.8,0.17,-12.29,-10.89,0,*41
1506448886.36,49853,15.81,74684.5,0.17,-12.75,-11.59,0,*45
1506448887.6,49854,15.81,74682.0,0.17,-11.59,-10.05,0,*47
1506448888.84,49855,15.81,74682.0,0.17,-13.15,-11.97,0,*46
1506448890.09,49856,15.81,74682.5,0.17,-13.01,-12.39,0,*47
1506448891.32,49857,15.81,74680.5,0.17,-13.15,-11.97,0,*44
1506448892.52,49858,15.81,74678.5,0.15,-13.23,-12.47,0,*42
1506448893.79,49859,15.81,74676.5,0.17,-12.71,-12.15,0,*40
1506448895.01,49860,15.81,74672.5,0.17,-10.45,-10.19,0,*41
1506448896.26,49861,15.81,74676.5,0.17,-9.61,-9.83,0,*45
1506448897.46,49862,15.81,74680.5,0.17,-9.79,-8.33,0,*45
1506448898.68,49863,15.81,74682.3,0.17,-11.01,-9.75,0,*71
1506448899.91,49864,15.81,74684.0,0.17,-10.75,-8.59,0,*7B
1506448901.17,49865,15.81,74684.0,0.17,-10.79,-9.83,0,*70
1506448902.39,49866,15.81,74690.5,0.17,-11.45,-9.75,0,*74
1506448903.66,49867,15.81,74692.5,0.17,-11.85,-10.67,0,*42
1506448904.9,49868,15.81,74694.5,0.17,-12.39,-10.75,0,*4A
1506448906.11,49869,15.81,74686.5,0.19,-12.21,-10.89,0,*4F
1506448907.33,49870,15.81,74688.3,0.19,-12.53,-11.23,0,*43
1506448908.55,49871,15.81,74688.3,0.19,-12.93,-11.73,0,*4B
1506448909.78,49872,15.81,74690.3,0.19,-11.97,-10.97,0,*44
1506448911.0,49873,15.81,74688.0,0.19,-12.57,-11.11,0,*45
1506448912.21,49874,15.81,74688.0,0.19,-13.11,-11.81,0,*48
1506448913.46,49875,15.81,74686.8,0.21,-13.37,-12.43,0,*4B
1506448914.71,49876,15.81,74690.0,0.19,-13.79,-12.79,0,*40
1506448915.9,49877,15.81,74690.5,0.19,-13.93,-13.11,0,*4A
1506448917.13,49878,15.81,74690.0,0.19,-13.97,-13.11,0,*41
1506448918.35,49879,15.81,74688.3,0.19,-14.19,-13.37,0,*45
1506448919.55,49880,15.81,74688.3,0.19,-14.23,-13.65,0,*4D
1506448920.8,49881,15.81,74692.3,0.21,-14.19,-13.37,0,*49
1506448922.0,49882,15.81,74692.3,0.19,-14.37,-13.51,0,*4D
1506448923.22,49883,15.81,74690.0,0.19,-14.51,-13.69,0,*47
1506448924.43,49884,15.81,74694.0,0.19,-14.65,-13.83,0,*43
1506448925.64,49885,15.81,74688.5,0.19,-14.65,-13.83,0,*42
1506448926.88,49886,15.81,74686.3,0.17,-14.69,-14.01,0,*4E
1506448928.12,49887,15.81,74690.5,0.17,-14.61,-13.97,0,*4F
1506448929.36,49888,15.81,74690.3,0.17,-14.69,-13.97,0,*48
1506448930.63,49889,15.81,74690.0,0.17,-14.75,-14.01,0,*4C
1506448931.89,49890,15.81,74688.5,0.17,-14.75,-14.01,0,*44
1506448933.16,49891,15.81,74694.0,0.17,-14.75,-13.97,0,*4D
1506448934.38,49892,15.81,74694.8,0.15,-14.69,-13.97,0,*41
1506448935.6,49893,15.81,74690.8,0.15,-14.83,-14.11,0,*4D
1506448936.84,49894,15.81,74688.8,0.17,-14.83,-14.15,0,*4C
1506448938.06,49895,15.81,74688.5,0.15,-14.83,-14.11,0,*4B
1506448939.28,49896,15.81,74694.0,0.15,-14.83,-14.11,0,*48
1506448940.52,49897,15.81,74694.0,0.17,-14.75,-14.15,0,*46
1506448941.75,49898,15.81,74692.3,0.15,-14.83,-14.15,0,*42
1506448942.98,49899,15.81,74688.8,0.15,-14.83,-14.15,0,*43
1506448944.19,49900,15.81,74694.3,0.15,-14.97,-14.23,0,*42
1506448945.43,49901,15.81,74684.8,0.17,-14.97,-14.29,0,*4B
1506448946.64,49902,15.81,74684.3,0.15,-14.97,-14.23,0,*40
1506448947.86,49903,15.81,74684.3,0.15,-14.97,-14.23,0,*41
1506448949.07,49904,15.81,74694.3,0.15,-14.97,-14.23,0,*46
1506448950.26,49905,15.81,74690.5,0.15,-15.11,-14.23,0,*48
1506448951.45,49906,15.81,74690.3,0.15,-15.11,-14.33,0,*4A
1506448952.64,49907,15.81,74694.5,0.15,-15.11,-14.33,0,*4B
1506448953.9,49908,15.81,74692.8,0.13,-15.15,-14.47,0,*45
1506448955.15,49909,15.81,74692.0,0.13,-15.25,-14.51,0,*40
1506448956.39,49910,15.81,74692.5,0.13,-15.25,-14.51,0,*48
1506448957.64,49911,15.81,74694.3,0.13,-15.25,-14.51,0,*49
1506448958.87,49912,15.81,74690.5,0.13,-15.25,-14.65,0,*4D
1506448960.12,49913,15.81,74688.5,0.13,-15.39,-14.61,0,*45
1506448961.37,49914,15.81,74690.5,0.13,-15.35,-14.65,0,*4A
1506448962.61,49915,15.81,74688.0,0.11,-15.39,-14.65,0,*45
1506448963.88,49916,15.81,74686.3,0.13,-15.39,-14.75,0,*45
1506448965.13,49917,15.81,74682.8,0.13,-15.49,-14.75,0,*43
1506448966.37,49918,15.81,74682.3,0.11,-15.49,-14.79,0,*42
1506448967.61,49919,15.81,74680.8,0.11,-15.53,-14.79,0,*48
1506448968.85,49920,15.81,74680.3,0.11,-15.49,-14.79,0,*49
1506448970.07,49921,15.81,74680.3,0.11,-15.63,-14.89,0,*4F
1506448971.32,49922,15.81,74682.8,0.13,-15.67,-14.93,0,*41
1506448972.56,49923,15.81,74682.8,0.13,-15.67,-14.93,0,*40
1506448973.8,49924,15.81,74678.3,0.11,-15.63,-14.93,0,*41
1506448975.02,49925,15.81,74682.5,0.11,-15.63,-14.89,0,*4B
1506448976.27,49926,15.81,74680.3,0.13,-15.63,-14.79,0,*45
1506448977.51,49927,15.81,74684.3,0.11,-15.49,-14.79,0,*4E
1506448978.76,49928,15.81,74682.8,0.11,-15.39,-14.65,0,*4B
1506448979.97,49929,15.81,74682.0,0.11,-15.49,-14.61,0,*49
1506448981.21,49930,15.81,74680.5,0.11,-15.49,-14.75,0,*44
1506448982.43,49931,15.81,74688.8,0.11,-15.53,-14.89,0,*4D
1506448983.67,49932,15.81,74690.0,0.11,-15.53,-15.01,0,*4F
1506448984.89,49933,15.81,74694.3,0.11,-15.67,-14.89,0,*48
1506448986.11,49934,15.81,74690.5,0.11,-15.67,-15.15,0,*4B
1506448987.32,49935,15.81,74692.5,0.11,-15.53,-15.07,0,*4E
1506448988.6,49936,15.81,74688.5,0.11,-14.05,-13.33,0,*4E
1506448989.85,49937,15.81,74690.5,0.11,-14.93,-13.79,0,*4E
1506448991.13,49938,15.81,74694.0,0.11,-14.47,-14.01,0,*40
1506448992.31,49939,15.81,74690.0,0.09,-14.33,-13.07,0,*7A
1506448993.52,49940,15.81,74690.0,0.09,-13.65,-12.79,0,*78
1506448994.77,49941,15.81,74686.8,0.11,-14.29,-13.33,0,*40
1506448996.01,49942,15.81,74688.8,0.11,-14.51,-13.73,0,*48
1506448997.22,49943,15.81,74694.0,0.09,-14.55,-13.69,0,*7F
1506448998.45,49944,15.81,74688.5,0.11,-14.93,-14.29,0,*48
1506448999.7,49945,15.81,74690.3,0.11,-15.25,-14.47,0,*4D
1506449000.92,49946,15.81,74694.5,0.11,-15.53,-14.89,0,*4D
1506449002.16,49947,15.81,74686.8,0.11,-15.63,-14.93,0,*44
1506449003.4,49948,15.81,74684.8,0.11,-15.67,-15.01,0,*45
1506449004.62,49949,15.81,74688.5,0.11,-15.75,-15.15,0,*42
1506449005.88,49950,15.81,74684.0,0.11,-15.81,-15.21,0,*46
1506449007.13,49951,15.81,74686.5,0.11,-15.75,-15.21,0,*4C
1506449008.35,49952,15.81,74690.0,0.11,-15.75,-15.15,0,*48
1506449009.56,49953,15.81,74688.8,0.09,-15.81,-15.11,0,*7F
1506449010.79,49954,15.81,74690.5,0.09,-15.85,-15.21,0,*7F
1506449012.03,49955,15.81,74690.5,0.09,-15.81,-15.21,0,*7A
1506449013.27,49956,15.81,74688.3,0.09,-15.85,-15.21,0,*7D
1506449014.5,49957,15.81,74690.8,0.09,-15.81,-15.21,0,*78
1506449015.72,49958,15.81,74688.0,0.07,-15.71,-15.11,0,*75
1506449016.95,49959,15.81,74686.5,0.09,-15.81,-15.21,0,*76
1506449018.17,49960,15.81,74688.3,0.11,-15.75,-15.07,0,*4A
1506449019.38,49961,15.81,74694.3,0.09,-15.71,-15.21,0,*72
1506449020.62,49962,15.81,74690.3,0.09,-15.81,-15.21,0,*7E
1506449021.83,49963,15.81,74688.3,0.09,-15.71,-15.21,0,*70
1506449023.04,49964,15.81,74692.8,0.09,-15.81,-15.11,0,*7B
1506449024.25,49965,15.81,74690.5,0.09,-15.81,-15.25,0,*7D
1506449025.47,49966,15.81,74692.5,0.09,-15.81,-15.29,0,*72
1506449026.69,49967,15.81,74686.5,0.09,-15.85,-15.29,0,*77
1506449027.91,49968,15.81,74690.3,0.09,-15.81,-15.25,0,*70
1506449029.13,49969,15.81,74690.3,0.09,-15.81,-15.25,0,*71
1506449030.35,49970,15.81,74690.5,0.09,-15.85,-15.25,0,*7D
1506449031.54,49971,15.81,74688.0,0.09,-15.95,-15.29,0,*71
1506449032.76,49972,15.81,74684.3,0.09,-15.95,-15.39,0,*73
1506449034.0,49973,15.81,74690.0,0.07,-15.99,-15.43,0,*7D
1506449035.22,49974,15.81,74690.5,0.09,-15.95,-15.39,0,*75
1506449036.43,49975,15.81,74694.3,0.09,-15.99,-15.43,0,*75
1506449037.61,49976,15.81,74690.8,0.09,-15.99,-15.53,0,*77
1506449038.89,49977,15.81,74692.3,0.07,-16.13,-15.57,0,*7D
1506449040.13,49978,15.81,74690.5,0.09,-16.13,-15.57,0,*7C
1506449041.37,49979,15.81,74690.0,0.07,-15.99,-15.39,0,*7A
1506449042.64,49980,15.81,74690.5,0.07,-16.13,-15.57,0,*75
1506449043.89,49981,15.81,74686.8,0.11,-16.17,-15.63,0,*40
1506449045.13,49982,15.81,74686.5,0.07,-16.23,-15.71,0,*70
1506449046.37,49983,15.81,74686.8,0.07,-16.23,-15.71,0,*71
1506449047.61,49984,15.81,74686.3,0.09,-16.27,-15.81,0,*73
1506449048.85,49985,15.81,74682.8,0.09,-16.31,-15.85,0,*71
1506449050.06,49986,15.81,74686.5,0.09,-16.31,-15.95,0,*73
1506449051.31,49987,15.81,74684.8,0.07,-16.41,-15.81,0,*7E
1506449052.53,49988,15.81,74690.8,0.07,-16.41,-15.95,0,*74
1506449053.78,49989,15.81,74690.5,0.07,-16.45,-15.85,0,*70
1506449055.01,49990,15.81,74682.0,0.07,-16.23,-15.67,0,*74
1506449056.23,49991,15.81,74686.3,0.09,-15.29,-14.97,0,*7C
1506449057.47,49992,15.81,74690.8,0.07,-15.85,-15.11,0,*78
1506449058.72,49993,15.75,74680.5,0.07,-15.85,-15.25,0,*7E
1506449059.99,49994,15.75,74688.0,0.07,-16.23,-15.57,0,*73
1506449061.2,49995,15.81,74686.8,0.09,-15.99,-15.57,0,*7E
1506449062.41,49996,15.81,74684.5,0.07,-13.93,-13.93,0,*71
1506449063.62,49997,15.81,74690.5,0.07,-14.65,-13.11,0,*74
1506449064.86,49998,15.81,74682.5,0.07,-15.29,-13.97,0,*7C
1506449066.08,49999,15.81,74684.3,0.07,-15.07,-14.65,0,*7B
1506449067.32,50000,15.81,74682.0,0.07,-15.25,-14.43,0,*7E
1506449068.56,50001,15.81,74686.3,0.07,-15.43,-14.65,0,*7B
1506449069.8,50002,15.81,74692.5,0.07,-15.71,-15.21,0,*78
1506449071.05,50003,15.81,74688.8,0.07,-15.95,-15.43,0,*77
1506449072.29,50004,15.81,74688.5,0.09,-16.13,-15.57,0,*76
1506449073.54,50005,15.81,74686.5,0.07,-16.09,-15.53,0,*76
1506449074.81,50006,15.81,74686.5,0.07,-16.13,-15.57,0,*7A
1506449076.06,50007,15.81,74688.5,0.07,-16.13,-15.71,0,*7F
1506449077.31,50008,15.81,74686.3,0.07,-16.23,-15.71,0,*73
1506449078.58,50009,15.81,74684.3,0.07,-16.27,-15.81,0,*79
1506449079.85,50010,15.81,74686.3,0.07,-16.09,-15.57,0,*76
1506449081.1,50011,15.81,74684.3,0.07,-16.13,-15.71,0,*78
1506449082.31,50012,15.81,74688.8,0.07,-15.95,-15.67,0,*71
1506449083.52,50013,15.81,74688.0,0.09,-16.27,-15.67,0,*74
1506449084.79,50014,15.81,74692.0,0.07,-16.27,-15.81,0,*75
1506449086.03,50015,15.81,74686.3,0.07,-16.31,-15.71,0,*7C
1506449087.31,50016,15.75,74684.3,0.07,-16.09,-15.39,0,*78
1506449088.55,50017,15.81,74688.8,0.07,-16.27,-15.67,0,*7E
1506449089.78,50018,15.81,74686.8,0.07,-16.27,-15.67,0,*71
1506449091.01,50019,15.81,74688.5,0.07,-16.41,-15.95,0,*7D
1506449092.22,50020,15.81,74692.3,0.07,-16.45,-15.99,0,*7F
1506449093.44,50021,15.81,74692.0,0.07,-16.55,-15.99,0,*7F
1506449094.63,50022,15.81,74688.5,0.09,-16.55,-15.99,0,*72
1506449095.88,50023,15.81,74686.0,0.07,-16.55,-16.09,0,*77
1506449097.15,50024,15.81,74684.5,0.07,-16.69,-16.13,0,*74
1506449098.4,50025,15.81,74690.0,0.07,-16.59,-16.09,0,*7D
1506449099.67,50026,15.81,74690.8,0.07,-16.69,-16.13,0,*76
1506449100.91,50027,15.81,74690.5,0.07,-16.59,-16.13,0,*74
1506449102.16,50028,15.81,74688.5,0.07,-16.59,-16.13,0,*7B
1506449103.37,50029,15.81,74690.8,0.05,-16.75,-16.27,0,*71
1506449104.59,50030,15.81,74694.3,0.05,-16.75,-16.31,0,*7E
1506449105.8,50031,15.75,74688.0,0.05,-16.79,-16.27,0,*74
1506449107.01,50032,15.81,74684.8,0.05,-16.89,-16.31,0,*7F
1506449108.19,50033,15.81,74688.8,0.05,-16.93,-16.37,0,*73
1506449109.37,50034,15.81,74690.3,0.05,-16.93,-16.37,0,*74
1506449110.55,50035,15.81,74688.5,0.05,-16.93,-16.37,0,*75
1506449111.76,50036,15.81,74694.0,0.05,-17.03,-16.37,0,*7E
1506449112.97,50037,15.81,74694.5,0.01,-17.11,-16.55,0,*7C
1506449114.18,50038,15.81,74682.0,0.01,-17.11,-16.55,0,*73
1506449115.4,50039,15.81,74690.8,0.01,-17.11,-16.55,0,*72
1506449116.62,50040,15.81,74684.0,0.05,-17.17,-16.59,0,*72
1506449117.84,50041,15.81,74688.3,0.05,-17.21,-16.59,0,*76
1506449119.04,50042,15.75,74684.3,0.01,-17.31,-16.65,0,*7F
1506449120.28,50043,15.81,74694.3,0.01,-17.25,-16.69,0,*77
1506449121.52,50044,15.75,74694.5,0.01,-17.25,-16.65,0,*7C
1506449122.73,50045,15.75,74690.3,0.01,-17.31,-16.69,0,*74
1506449123.95,50046,15.75,74690.5,0.05,-17.41,-16.79,0,*75
1506449125.16,50047,15.75,74686.0,0.01,-17.45,-16.79,0,*74
1506449126.38,50048,15.81,74690.0,0.05,-17.41,-16.79,0,*7B
1506449127.59,50049,15.81,74694.3,0.01,-17.55,-16.83,0,*7E
1506449128.8,50050,15.81,74692.5,0.01,-17.55,-16.93,0,*77
1506449130.01,50051,15.81,74688.3,0.01,-17.55,-16.93,0,*76
1506449131.21,50052,15.81,74694.8,0.01,-17.59,-16.93,0,*79
1506449132.4,50053,15.81,74692.5,0.01,-17.69,-16.93,0,*7B
1506449133.58,50054,15.75,74692.5,0.01,-17.69,-16.97,0,*78
1506449134.76,50055,15.75,74692.3,0.01,-17.73,-16.97,0,*72
1506449135.98,50056,15.75,74684.5,0.01,-17.73,-17.07,0,*79
1506449137.17,50057,15.81,74692.3,0.01,-17.83,-16.97,0,*7F
1506449138.39,50058,15.81,74688.0,0.01,-17.83,-17.07,0,*78
1506449139.58,50059,15.81,74690.3,0.01,-17.73,-16.97,0,*7E
1506449140.79,50060,15.81,74692.0,0.01,-17.73,-17.07,0,*7C
1506449142.01,50061,15.81,74694.3,0.01,-17.87,-17.11,0,*71
1506449143.23,50062,15.75,74694.8,0.01,-17.83,-17.07,0,*71
1506449144.48,50063,15.81,74694.8,-0.01,-17.87,-17.07,0,*59
1506449145.73,50064,15.81,74698.5,-0.01,-17.87,-17.21,0,*5A
1506449146.97,50065,15.75,74690.8,-0.01,-17.97,-17.31,0,*5B
1506449148.22,50066,15.81,74696.3,-0.01,-17.97,-17.31,0,*58
1506449149.46,50067,15.81,74696.0,0.01,-18.01,-17.21,0,*75
1506449150.7,50068,15.81,74698.0,0.01,-18.01,-17.21,0,*7A
1506449151.91,50069,15.81,74696.0,0.01,-18.01,-17.31,0,*7A
1506449153.14,50070,15.81,74694.0,0.01,-18.01,-17.41,0,*75
1506449154.36,50071,15.81,74688.3,-0.01,-18.17,-17.31,0,*59
1506449155.6,50072,15.81,74688.0,-0.01,-18.11,-17.41,0,*5B
1506449156.82,50073,15.75,74694.8,-0.03,-18.21,-17.45,0,*5F
1506449158.04,50074,15.81,74692.0,-0.01,-18.17,-17.31,0,*5C
1506449159.28,50075,15.81,74692.0,-0.01,-18.17,-17.41,0,*5A
1506449160.53,50076,15.81,74688.0,-0.01,-18.17,-17.45,0,*5D
1506449161.8,50077,15.75,74688.5,-0.01,-18.31,-17.45,0,*58
1506449163.02,50078,15.75,74688.3,-0.03,-18.21,-17.55,0,*55
1506449164.27,50079,15.81,74688.3,-0.01,-18.21,-17.45,0,*57
1506449165.48,50080,15.81,74688.3,-0.03,-18.35,-17.49,0,*5A
1506449166.7,50081,15.75,74696.5,-0.03,-18.35,-17.49,0,*5B
1506449167.98,50082,15.75,74692.3,-0.01,-18.31,-17.55,0,*53
1506449169.25,50083,15.81,74694.0,-0.01,-18.31,-17.55,0,*52
1506449170.53,50084,15.75,74690.0,-0.01,-18.31,-17.45,0,*54
1506449171.77,50085,15.75,74692.5,-0.01,-18.45,-17.59,0,*5B
1506449173.02,50086,15.75,74692.5,-0.01,-18.45,-17.59,0,*58
1506449174.29,50087,15.81,74698.3,-0.01,-18.35,-17.55,0,*52
1506449175.54,50088,15.81,74696.5,-0.01,-18.45,-17.59,0,*56
1506449176.78,50089,15.81,74696.8,-0.01,-18.45,-17.59,0,*57
1506449178.03,50090,15.75,74696.3,-0.01,-18.45,-17.59,0,*5F
1506449179.22,50091,15.81,74696.5,-0.03,-18.49,-17.73,0,*58
1506449180.46,50092,15.75,74696.0,-0.03,-18.55,-17.79,0,*5C
1506449181.66,50093,15.75,74692.8,-0.03,-18.65,-17.69,0,*5F
1506449182.85,50094,15.81,74698.5,-0.03,-18.65,-17.73,0,*53
1506449184.07,50095,15.81,74692.5,-0.01,-18.49,-17.73,0,*5E
1506449185.31,50096,15.75,74692.0,-0.01,-18.59,-17.73,0,*5C
1506449186.52,50097,15.75,74694.8,-0.03,-18.65,-17.79,0,*5A
1506449187.73,50098,15.75,74694.0,-0.03,-18.69,-17.87,0,*58
1506449188.95,50099,15.75,74688.5,-0.03,-18.69,-17.79,0,*58
1506449190.17,50100,15.75,74694.0,-0.03,-18.69,-17.79,0,*59
1506449191.39,50101,15.81,74696.3,-0.03,-18.79,-17.79,0,*59
1506449192.63,50102,15.81,74692.5,-0.01,-18.59,-17.73,0,*50
1506449193.85,50103,15.75,74694.5,-0.01,-18.65,-17.73,0,*5E
1506449195.04,50104,15.75,74692.5,-0.03,-18.83,-17.87,0,*58
1506449196.24,50105,15.75,74694.0,-0.03,-18.79,-17.87,0,*5C
1506449197.47,50106,15.75,74694.5,-0.01,-18.73,-17.87,0,*57
1506449198.67,50107,15.81,74698.8,-0.03,-18.79,-17.87,0,*5E
1506449199.89,50108,15.75,74698.8,-0.01,-18.79,-17.87,0,*53
1506449201.11,50109,15.75,74704.3,-0.03,-18.83,-17.93,0,*50
1506449202.33,50110,15.75,74702.8,-0.03,-18.83,-18.01,0,*5C
1506449203.57,50111,15.75,74698.3,-0.03,-18.93,-17.93,0,*58
1506449204.82,50112,15.81,74702.0,-0.03,-18.93,-18.01,0,*5F
1506449206.06,50113,15.75,74700.5,-0.03,-18.93,-17.93,0,*5A
1506449207.26,50114,15.75,74700.3,-0.03,-18.83,-17.87,0,*59
1506449208.51,50115,15.75,74696.8,-0.01,-18.89,-17.87,0,*50
1506449209.75,50116,15.75,74698.5,-0.01,-18.89,-17.83,0,*57
1506449210.95,50117,15.75,74698.5,-0.03,-18.83,-17.87,0,*5A
1506449212.18,50118,15.81,74698.8,-0.03,-18.93,-17.87,0,*54
1506449213.4,50119,15.75,74694.3,-0.03,-18.93,-17.87,0,*55
1506449214.65,50120,15.75,74696.3,-0.03,-18.93,-17.79,0,*5E
1506449215.87,50121,15.75,74696.0,-0.03,-18.99,-17.93,0,*51
1506449217.08,50122,15.75,74696.8,-0.03,-19.07,-18.01,0,*50
1506449218.35,50123,15.75,74696.3,-0.05,-18.93,-17.93,0,*5F
1506449219.58,50124,15.75,74698.0,-0.05,-18.99,-17.87,0,*57
1506449220.85,50125,15.75,74698.8,-0.05,-18.93,-17.93,0,*59
1506449222.08,50126,15.75,74696.3,-0.05,-18.99,-17.87,0,*55
1506449223.33,50127,15.75,74696.3,-0.05,-19.13,-17.93,0,*52
1506449224.58,50128,15.75,74696.8,-0.05,-19.13,-17.93,0,*5D
1506449225.83,50129,15.75,74692.8,-0.05,-19.13,-18.01,0,*58
1506449227.08,50130,15.75,74698.5,-0.01,-19.07,-17.97,0,*51
1506449228.31,50131,15.75,74698.8,-0.05,-19.13,-18.07,0,*57
1506449229.56,50132,15.75,74696.8,-0.05,-19.23,-18.07,0,*57
1506449230.81,50133,15.75,74696.5,-0.05,-19.27,-18.17,0,*53
1506449232.07,50134,15.75,74694.5,-0.05,-19.27,-18.07,0,*55
1506449233.33,50135,15.75,74696.3,-0.05,-19.27,-18.07,0,*54
1506449234.58,50136,15.75,74692.0,-0.05,-19.31,-18.07,0,*50
1506449235.82,50137,15.75,74692.8,-0.05,-19.31,-18.17,0,*50
1506449237.05,50138,15.75,74698.8,-0.03,-19.27,-18.17,0,*5E
1506449238.3,50139,15.75,74692.0,-0.05,-19.31,-18.21,0,*5B
1506449239.5,50140,15.75,74690.8,-0.07,-19.37,-18.21,0,*51
1506449240.69,50141,15.75,74694.5,-0.07,-19.51,-18.25,0,*54
1506449241.89,50142,15.75,74694.0,-0.07,-19.47,-18.11,0,*57
1506449243.08,50143,15.75,74696.8,-0.07,-19.47,-18.21,0,*55
1506449244.31,50144,15.75,74694.0,-0.07,-19.47,-18.31,0,*53
1506449245.55,50145,15.75,74692.8,-0.05,-19.41,-18.21,0,*57
1506449246.74,50146,15.75,74696.0,-0.07,-19.47,-18.25,0,*54
1506449247.99,50147,15.75,74692.8,-0.05,-19.41,-18.21,0,*55
1506449249.2,50148,15.75,74694.3,-0.05,-19.47,-18.25,0,*58
1506449250.41,50149,15.75,74694.8,-0.05,-19.47,-18.25,0,*59
1506449251.63,50150,15.75,74696.8,-0.07,-19.61,-18.41,0,*55
1506449252.85,50151,15.75,74698.0,-0.07,-19.65,-18.25,0,*52
1506449254.1,50152,15.75,74696.0,-0.05,-19.57,-18.41,0,*50
1506449255.32,50153,15.75,74698.0,-0.07,-19.61,-18.41,0,*56
1506449256.54,50154,15.75,74694.0,-0.07,-19.65,-18.41,0,*55
1506449257.76,50155,15.75,74696.0,-0.07,-19.65,-18.41,0,*54
1506449258.95,50156,15.75,74692.8,-0.07,-19.75,-18.41,0,*56
1506449260.17,50157,15.75,74694.3,-0.07,-19.65,-18.41,0,*56
1506449261.39,50158,15.75,74692.3,-0.07,-19.65,-18.41,0,*59
1506449262.6,50159,15.75,74692.5,-0.07,-19.81,-18.45,0,*56
1506449263.83,50160,15.75,74690.8,-0.07,-19.81,-18.55,0,*5D
1506449265.04,50161,15.75,74692.3,-0.07,-19.81,-18.45,0,*5D
1506449266.26,50162,15.75,74692.0,-0.05,-19.71,-18.41,0,*57
1506449267.48,50163,15.75,74692.8,-0.05,-19.71,-18.41,0,*56
1506449268.69,50164,15.75,74692.5,-0.07,-19.75,-18.55,0,*52
1506449269.93,50165,15.75,74694.8,-0.07,-19.81,-18.55,0,*58
1506449271.14,50166,15.75,74698.8,-0.07,-19.91,-18.59,0,*56
1506449272.4,50167,15.75,74694.5,-0.09,-19.85,-18.59,0,*5C
1506449273.63,50168,15.75,74692.8,-0.07,-19.81,-18.59,0,*59
1506449274.84,50169,15.75,74690.8,-0.07,-19.91,-18.59,0,*59
1506449276.05,50170,15.75,74692.5,-0.07,-19.91,-18.59,0,*51
1506449277.26,50171,15.75,74694.0,-0.07,-19.91,-18.59,0,*50
1506449278.49,50172,15.75,74696.5,-0.07,-19.81,-18.55,0,*5E
1506449279.72,50173,15.75,74692.5,-0.07,-19.81,-18.59,0,*53
1506449280.93,50174,15.75,74696.3,-0.07,-19.91,-18.59,0,*55
1506449282.12,50175,15.75,74694.3,-0.07,-20.05,-18.69,0,*50
1506449283.32,50176,15.75,74694.3,-0.07,-19.95,-18.69,0,*50
1506449284.53,50177,15.75,74692.0,-0.07,-19.91,-18.59,0,*56
1506449285.73,50178,15.75,74694.0,-0.07,-19.95,-18.73,0,*55
1506449286.95,50179,15.75,74698.3,-0.09,-19.99,-18.73,0,*56
1506449288.16,50180,15.75,74692.5,-0.09,-20.09,-18.79,0,*59
1506449289.38,50181,15.75,74694.0,-0.09,-20.09,-18.73,0,*52
1506449290.61,50182,15.75,74690.3,-0.09,-19.99,-18.73,0,*52
1506449291.82,50183,15.75,74694.5,-0.09,-19.99,-18.79,0,*59
1506449293.03,50184,15.75,74692.3,-0.11,-19.99,-18.73,0,*6D
1506449294.23,50185,15.75,74690.8,-0.11,-19.95,-18.73,0,*60
1506449295.46,50186,15.75,74692.3,-0.09,-19.95,-18.73,0,*5A
1506449296.66,50187,15.75,74694.5,-0.11,-19.99,-18.73,0,*6E
1506449297.86,50188,15.75,74700.8,-0.11,-19.95,-18.73,0,*6D